GORIZONT 26 [-]

Last updated on Wed Jun 28 2023 00:02:54 GMT+0000 (Coordinated Universal Time)

1 22041U 92043A 23177.71713639 -.00000091 00000+0 00000+0 0 9993 2 22041 14.4575 352.6252 0030350 239.5826 128.9877 0.99246051112718
UTC large
Height (km)
Speed (km/s)
/
Latitude / Longitude
Inclination (degrees)
Orbital Period (minutes)
Azimuth
Elevation
Range (km)
Doppler Factor

Next 0 passes for location: London (51.5072 / 0.1276)

Sorry there are no passes over London.
GORIZONT 26 [-]